Wind_Speed
13 12 14 14 16 19 21 22 23 22 23 25 28 27 27 26 26 27 27 29 29 29 30 31 30 30 30 31 31 31 31 25
25 19 18 18 17 18 20 22 23 23 24 26 29 30 29 28 27 27 28 29 30 31 32 32 32 32 32 33 33 34 34 30
26 21 18 19 19 19 19 19 21 24 26 27 29 30 30 33 32 31 30 31 32 33 35 34 34 35 35 35 35 36 38 35
38 30 24 22 23 23 21 23 26 27 30 31 31 32 33 33 32 33 33 34 33 34 35 38 39 39 36 36 36 37 35 33
38 16 22 23 23 21 22 27 28 32 37 40 39 37 36 36 35 36 36 38 35 37 40 39 38 36 38 37 38 37 37 33
29 29 24 20 23 27 30 27 32 34 39 45 45 42 41 40 39 40 40 42 39 41 42 38 40 41 38 36 39 41 42 35
27 24 24 24 19 20 24 28 30 33 41 41 41 40 44 37 44 43 42 38 36 36 38 37 35 37 31 34 34 33 33 35
27 25 25 25 23 24 27 28 31 30 38 41 43 43 43 45 43 42 39 38 40 39 39 42 43 43 40 38 37 36 37 36
27 25 25 26 30 30 34 33 34 32 33 34 39 37 44 50 48 48 50 49 49 47 49 49 48 49 47 46 45 41 41 43
28 29 31 32 33 32 36 39 34 31 32 33 32 35 32 35 44 47 51 54 55 55 54 53 51 50 49 49 50 49 49 49
25 28 31 33 35 36 40 35 32 33 36 35 33 33 35 39 44 42 39 42 47 54 58 59 56 55 53 56 55 53 50 48
30 31 33 36 38 39 36 35 36 38 37 33 37 36 36 38 39 41 44 47 48 46 47 49 56 61 61 60 59 56 54 57
34 33 36 36 35 31 33 37 38 41 41 40 43 45 47 49 50 50 49 47 47 50 50 51 52 53 51 53 61 70 70 61
32 34 35 33 32 35 38 39 41 43 44 46 50 54 56 58 59 57 55 53 52 51 49 51 53 55 57 55 54 56 58 69
30 33 33 35 37 39 41 43 45 46 48 52 55 58 60 62 61 59 55 52 51 52 50 48 49 54 57 59 58 55 57 60
28 32 36 39 42 45 46 47 49 52 54 56 59 60 57 56 54 53 54 53 52 51 50 49 48 49 54 58 60 59 55 54
32 38 42 43 44 46 49 50 52 54 52 49 48 46 45 46 46 48 50 50 50 50 51 50 48 47 50 54 56 58 61 58
32 34 37 39 41 43 44 44 43 44 45 45 43 42 42 44 45 46 47 49 51 51 51 53 54 54 53 53 54 57 59 60
37 36 37 37 37 35 36 39 42 43 43 42 41 40 40 41 43 45 47 48 50 52 54 55 57 57 58 58 58 58 58 62
38 39 39 39 39 40 42 42 41 38 38 38 39 40 41 44 46 48 50 53 56 58 59 61 62 63 65 65 66 66 65 64
Wind_Direction
244 246 242 243 238 239 240 241 245 250 252 255 258 257 257 258 259 261 263 266 268 269 271 271 271 273 273 273 275 277 275 272
236 230 237 243 250 257 259 262 263 260 260 260 260 261 264 263 264 266 266 268 271 272 274 275 275 275 275 277 278 278 276 276
251 228 242 252 261 266 275 276 268 265 266 269 269 269 268 266 266 267 269 271 273 273 272 270 271 270 271 272 273 274 276 276
285 238 214 227 240 247 254 264 273 276 276 275 272 271 269 268 269 268 266 266 265 268 267 268 269 268 270 269 271 272 271 274
349 355 240 218 231 243 256 265 269 273 276 275 270 268 270 264 262 262 264 264 263 263 265 265 268 266 266 270 267 267 267 276
339 347 346 270 270 258 253 261 263 276 270 269 269 268 268 267 266 261 261 261 264 266 266 268 274 275 262 273 276 259 260 270
327 333 334 328 332 323 291 291 291 289 282 288 283 278 276 273 276 274 267 266 270 274 276 270 270 270 270 272 273 273 252 267
314 320 323 323 323 304 306 306 302 298 280 278 281 279 280 280 275 273 266 265 273 270 269 272 275 277 279 278 272 272 269 268
308 310 315 319 319 316 320 312 310 306 304 294 287 295 281 280 275 275 271 273 279 274 272 272 272 273 273 273 274 272 268 266
309 312 314 316 316 314 315 313 315 309 310 310 311 308 315 293 278 279 279 278 277 277 273 270 269 271 272 273 272 269 266 267
296 303 302 302 304 306 307 300 296 299 303 305 305 303 301 300 298 298 298 290 287 281 279 273 270 270 268 269 269 269 265 262
296 295 298 302 302 306 303 302 294 295 300 302 309 307 308 307 305 299 289 286 285 284 284 283 273 270 269 267 266 265 262 259
297 296 300 302 303 300 296 298 298 296 296 294 303 303 303 305 305 299 295 293 288 281 280 280 280 275 272 269 268 264 261 259
297 297 298 300 300 299 299 299 299 299 295 291 295 300 300 302 301 297 295 292 291 289 283 279 277 275 276 275 269 268 265 260
292 300 299 300 301 300 297 296 295 295 295 293 294 295 295 295 295 296 295 292 290 290 289 285 278 275 272 269 269 269 266 265
304 304 303 302 301 300 297 295 294 294 294 294 294 294 294 295 294 294 296 296 296 296 295 292 286 279 276 272 269 267 264 262
300 303 301 300 298 296 296 295 294 296 297 298 298 300 300 303 303 304 303 304 302 299 297 295 291 287 281 278 275 271 267 262
299 298 295 293 294 294 295 300 306 307 305 303 304 305 303 302 302 300 299 300 299 298 296 294 292 290 286 283 279 275 273 268
304 305 303 303 305 308 310 314 312 309 306 304 303 303 304 305 305 304 302 301 299 297 296 294 292 290 288 285 281 277 272 270
311 309 308 310 312 312 311 313 312 311 308 307 307 308 308 306 304 303 303 301 300 298 296 294 292 291 290 287 284 280 275 270
Height
5874 5874 5876 5876 5876 5875 5875 5874 5874 5874 5873 5873 5873 5871 5870 5868 5866 5865 5864 5863 5863 5862 5860 5859 5858 5857 5855 5854 5854 5854 5854 5856
5867 5866 5869 5869 5870 5870 5870 5871 5871 5870 5869 5868 5866 5866 5865 5864 5861 5860 5859 5857 5856 5855 5854 5853 5853 5852 5850 5849 5848 5847 5847 5849
5862 5863 5863 5865 5867 5866 5868 5867 5865 5864 5863 5862 5862 5861 5859 5857 5855 5853 5852 5851 5850 5848 5847 5846 5846 5845 5845 5844 5843 5841 5839 5841
5855 5852 5853 5857 5859 5859 5860 5859 5859 5858 5857 5855 5853 5852 5851 5850 5849 5846 5845 5843 5843 5841 5839 5838 5838 5838 5837 5836 5836 5835 5833 5833
5853 5852 5849 5846 5851 5854 5852 5850 5851 5850 5850 5847 5844 5840 5840 5840 5838 5837 5835 5833 5832 5832 5831 5830 5831 5831 5830 5829 5828 5828 5827 5828
5856 5850 5848 5851 5850 5848 5844 5840 5840 5842 5839 5836 5835 5834 5832 5829 5829 5828 5826 5824 5823 5821 5821 5821 5822 5823 5822 5821 5820 5820 5820 5820
5851 5849 5848 5845 5844 5845 5844 5841 5836 5833 5831 5827 5827 5828 5825 5822 5821 5820 5819 5817 5815 5814 5813 5815 5815 5815 5813 5811 5811 5811 5812 5812
5846 5843 5843 5843 5841 5841 5839 5835 5829 5826 5823 5821 5820 5818 5815 5813 5812 5809 5809 5808 5808 5807 5805 5806 5806 5806 5805 5803 5803 5803 5802 5804
5843 5841 5839 5837 5835 5832 5828 5825 5822 5820 5818 5815 5810 5807 5805 5804 5803 5801 5799 5798 5797 5796 5797 5795 5795 5795 5796 5796 5795 5795 5794 5794
5839 5837 5833 5831 5829 5825 5822 5819 5816 5814 5811 5809 5805 5801 5797 5793 5791 5790 5788 5787 5786 5785 5784 5784 5784 5784 5785 5784 5785 5784 5783 5783
5836 5834 5832 5829 5825 5821 5818 5815 5812 5809 5806 5802 5798 5794 5791 5788 5785 5782 5779 5777 5775 5773 5771 5771 5771 5771 5771 5772 5772 5772 5772 5772
5832 5828 5825 5821 5817 5814 5811 5808 5805 5802 5798 5793 5790 5786 5783 5780 5778 5774 5771 5767 5764 5762 5760 5756 5755 5756 5757 5756 5757 5758 5758 5758
5823 5820 5816 5812 5810 5807 5805 5801 5797 5793 5788 5784 5780 5777 5773 5770 5766 5762 5759 5756 5753 5751 5748 5746 5742 5742 5742 5741 5740 5740 5741 5743
5817 5812 5808 5805 5803 5799 5796 5792 5787 5783 5778 5774 5769 5765 5760 5756 5752 5748 5745 5741 5739 5737 5735 5733 5729 5726 5725 5724 5726 5724 5723 5723
5810 5806 5803 5800 5796 5792 5788 5783 5779 5774 5770 5765 5760 5755 5750 5745 5739 5734 5730 5728 5725 5722 5720 5718 5716 5711 5709 5709 5707 5709 5708 5705
5805 5800 5796 5791 5786 5783 5778 5773 5769 5764 5758 5753 5748 5743 5737 5732 5727 5723 5718 5715 5712 5709 5707 5705 5703 5700 5696 5692 5691 5690 5691 5694
5798 5793 5788 5783 5778 5773 5768 5763 5757 5752 5747 5741 5737 5732 5727 5721 5717 5712 5707 5703 5699 5697 5693 5690 5688 5687 5684 5680 5675 5673 5673 5674
5791 5786 5780 5775 5770 5765 5759 5753 5748 5743 5737 5732 5727 5722 5717 5712 5707 5702 5697 5692 5688 5684 5680 5676 5672 5670 5668 5666 5663 5660 5657 5655
5783 5776 5770 5765 5761 5757 5750 5744 5739 5733 5727 5722 5717 5712 5707 5702 5697 5692 5687 5682 5677 5672 5667 5662 5658 5654 5650 5647 5645 5643 5641 5639
5772 5766 5761 5757 5752 5747 5741 5736 5730 5724 5718 5713 5708 5703 5698 5693 5688 5683 5677 5671 5665 5659 5654 5648 5642 5637 5632 5628 5625 5622 5620 5618